Miscellaneous Local Product
Issued by NWS Hastings, NE

Home | Current Version | Previous Version | Graphics & Text | Print | Product List | Glossary On
Versions: 1 2 3 4 5 6 7 8 9 10 11 12 13 14 15 16 17 18 19 20 21 22 23 24 25 26 27 28 29 30 31 32 33 34 35 36 37 38 39 40 41 42 43 44 45 46 47 48 49 50
000
AXUS43 KGID 040902
MISGRI

GID CWA HOURLY WEATHER ROUNDUP
NATIONAL WEATHER SERVICE HASTINGS NE
300 AM CST WED MAR 04 2015

NOTE: "FAIR" INDICATES FEW OR NO CLOUDS BELOW 12,000 FEET WITH NO
SIGNIFICANT WEATHER AND/OR OBSTRUCTIONS TO VISIBILITY.

...SOUTH CENTRAL NEBRASKA...

CITY           SKY/WX    TMP DP  RH WIND       PRES   REMARKS
GRAND ISLAND   CLOUDY    16  13  88 NW6       30.16S WCI   7
HASTINGS       LGT SNOW  17  13  84 N8        30.15S FOG     WCI   7
KEARNEY        CLOUDY    16  10  79 NW5       30.16R WCI   9
ORD            PTCLDY    11   3  70 NW7       30.14S WCI   0
YORK           LGT SNOW  18  16  93 NW6       30.16F WCI   9
AURORA         CLOUDY    17  14  85 NW5       30.16S WCI  10
LEXINGTON      CLOUDY    15  12  87 NW6       30.14S WCI   7
HOLDREGE       CLOUDY    17  13  85 N8        30.14R WCI   6
HEBRON         LGT SNOW  18  14  84 N6        30.18F WCI  10

...NEBRASKA PANHANDLE...

CITY           SKY/WX    TMP DP  RH WIND       PRES   REMARKS
CHADRON        PTCLDY     5  -2  72 SW8       30.14R WCI  -8
ALLIANCE       PTCLDY     1  -3  83 W8        30.07R WCI -13
SCOTTSBLUFF    MOCLDY     8   5  87 NW7       30.09S WCI  -3
SIDNEY         LGT SNOW  13   8  81 N16       30.06R WCI  -3

...WESTERN AND NORTH CENTRAL NEBRASKA...

CITY           SKY/WX    TMP DP  RH WIND       PRES   REMARKS
VALENTINE      PTCLDY     5  -1  76 W6        30.12R WCI  -6
AINSWORTH      PTCLDY     8   1  73 W6        30.11S WCI  -2
ONEILL         PTCLDY    12   3  68 W6        30.14S WCI   2
BROKEN BOW     PTCLDY    14   9  80 NW8       30.13S WCI   3
IMPERIAL       LGT SNOW  16  12  84 N3        30.10R FOG
NORTH PLATTE   MOCLDY    13   9  84 N5        30.13R WCI   5
MCCOOK         LGT SNOW  18  14  84 NE5       30.14R FOG     WCI  11

...EASTERN NEBRASKA...

CITY           SKY/WX    TMP DP  RH WIND       PRES   REMARKS
NORFOLK        MOCLDY    17   6  62 NW5       30.15S WCI  10
SO SIOUX CITY  MOCLDY    16   6  65 N8        30.19S WCI   5
TEKAMAH        CLOUDY    18   6  59 NW7       30.20R WCI   9
COLUMBUS       CLOUDY    18   7  62 W5        30.18S WCI  11
ALBION         MOCLDY    17   2  52 NW7       30.15S WCI   8
OMAHA EPPLEY   LGT SNOW  17   9  70 N10       30.20S WCI   5
OFFUTT AFB     LGT SNOW  17  11  80 N7        30.19S WCI   7
MILLARD        LGT SNOW  18  12  79 NW5       30.20S WCI  11
LINCOLN        LGT SNOW  18  14  84 N6        30.20S FOG     WCI  10
NEBRASKA CITY  LGT SNOW  17  12  81 N9        30.19R WCI   5
BEATRICE       LGT SNOW  18  14  87 N12       30.18S WCI   5
FALLS CITY     CLOUDY    20   5  52 N14       30.19R WCI   7

...NORTHERN KANSAS...

CITY           SKY/WX    TMP DP  RH WIND       PRES   REMARKS
GOODLAND       LGT SNOW  17  14  88 NE7       30.06R FOG     WCI   8
HILL CITY      CLOUDY    19  12  74 NE18      30.16R WCI   4
NORTON         LGT SNOW  18  12  79 N6        30.13S WCI   9
PHILLIPSBURG   LGT SNOW  21  18  86 N5        30.18R WCI  15
SMITH CENTER   LGT SNOW  16  12  86 N7        30.18R WCI   6
BELOIT         CLOUDY    19  14  79 N15       30.18R WCI   5
HAYS           CLOUDY    19   7  58 NE16      30.14S WCI   5
RUSSELL        CLOUDY    20  11  68 N17       30.13R WCI   5
CONCORDIA      CLOUDY    19  13  77 N12       30.18R WCI   7
SALINA         CLOUDY    24   8  50 N16G24    30.16R WCI  11
TOPEKA         CLOUDY    22   8  55 N18G25    30.17R WCI   7



USA.gov is the U.S. government's official web portal to all federal, state and local government web resources and services.